When you browse on this site, cookies collect data to enhance your experience and personalize the content and advertising you see.
Visit our Privacy Policy to learn more. By continuing to use the site, you agree to this use of cookies and data.
  • In Romania
  • List of Countries
  • For 7 days
  • Water Temperature
  • Weather Map
  • Weather Widgets
  • user-avatar
    Login

    Hourly Weather Malaga

    Today, 12 November, Tuesday

    Time Temperature Precipitation Wind Pressure Humidity
    00:00 +14°C° 0 mm 4 mps 760 mmHg 83%
    01:00 +14°C° 0 mm 4 mps 759 mmHg 82%
    02:00 +13°C° 0 mm 3 mps 759 mmHg 82%
    03:00 +13°C° 0 mm 3 mps 759 mmHg 81%
    04:00 +13°C° 0 mm 3 mps 759 mmHg 81%
    05:00 +13°C° 0 mm 3 mps 759 mmHg 81%
    06:00 +13°C° 0 mm 3 mps 759 mmHg 81%
    07:00 +14°C° 0 mm 3 mps 759 mmHg 76%
    08:00 +16°C° 0 mm 3 mps 759 mmHg 71%
    09:00 +17°C° 0 mm 3 mps 759 mmHg 65%
    10:00 +18°C° 0 mm 3 mps 759 mmHg 60%
    11:00 +19°C° 0 mm 4 mps 759 mmHg 55%
    12:00 +20°C° 0 mm 4 mps 759 mmHg 49%
    13:00 +20°C° 0 mm 4 mps 759 mmHg 49%
    14:00 +20°C° 0 mm 5 mps 758 mmHg 49%
    15:00 +20°C° 0 mm 5 mps 757 mmHg 49%
    16:00 +19°C° 0 mm 5 mps 758 mmHg 52%
    17:00 +16°C° 0 mm 5 mps 758 mmHg 55%
    18:00 +15°C° 0 mm 5 mps 759 mmHg 57%
    19:00 +15°C° 0 mm 5 mps 759 mmHg 58%
    20:00 +14°C° 0 mm 4 mps 759 mmHg 59%
    21:00 +14°C° 0 mm 4 mps 759 mmHg 59%
    22:00 +13°C° 0 mm 4 mps 759 mmHg 58%
    23:00 +13°C° 0 mm 4 mps 759 mmHg 57%

    Tomorrow, 13 November, Wednesday

    Time Temperature Precipitation Wind Pressure Humidity
    00:00 +13°C° 0 mm 4 mps 759 mmHg 56%
    01:00 +13°C° 0 mm 4 mps 759 mmHg 57%
    02:00 +13°C° 0 mm 4 mps 759 mmHg 58%
    03:00 +12°C° 0 mm 4 mps 759 mmHg 59%
    04:00 +12°C° 0 mm 4 mps 759 mmHg 63%
    05:00 +12°C° 0 mm 4 mps 759 mmHg 67%
    06:00 +12°C° 0 mm 4 mps 759 mmHg 71%
    07:00 +13°C° 0 mm 4 mps 759 mmHg 73%
    08:00 +14°C° 0 mm 4 mps 759 mmHg 74%
    09:00 +15°C° 0 mm 5 mps 759 mmHg 75%
    10:00 +17°C° 0 mm 5 mps 759 mmHg 70%
    11:00 +19°C° 0 mm 6 mps 759 mmHg 65%
    12:00 +20°C° 0 mm 6 mps 759 mmHg 60%
    13:00 +21°C° 0 mm 6 mps 759 mmHg 60%
    14:00 +21°C° 0 mm 7 mps 758 mmHg 60%
    15:00 +21°C° 0 mm 7 mps 758 mmHg 60%
    16:00 +20°C° 0 mm 6 mps 758 mmHg 67%
    17:00 +19°C° 0 mm 6 mps 758 mmHg 74%
    18:00 +16°C° 0 mm 5 mps 759 mmHg 81%
    19:00 +17°C° 0 mm 4 mps 759 mmHg 82%
    20:00 +16°C° 0 mm 3 mps 759 mmHg 84%
    21:00 +16°C° 0 mm 3 mps 759 mmHg 85%
    22:00 +16°C° 0 mm 3 mps 759 mmHg 85%
    23:00 +14°C° 0 mm 3 mps 759 mmHg 85%

    Day after tomorrow, 14 November, Thursday

    Time Temperature Precipitation Wind Pressure Humidity
    00:00 +14°C° 0 mm 3 mps 758 mmHg 84%
    01:00 +14°C° 0 mm 3 mps 758 mmHg 84%
    02:00 +14°C° 0 mm 3 mps 758 mmHg 84%
    03:00 +14°C° 0 mm 3 mps 757 mmHg 84%
    04:00 +13°C° 0 mm 3 mps 757 mmHg 85%
    05:00 +13°C° 0 mm 4 mps 757 mmHg 85%
    06:00 +12°C° 0 mm 4 mps 757 mmHg 86%
    07:00 +13°C° 0 mm 5 mps 757 mmHg 79%
    08:00 +13°C° 0 mm 5 mps 757 mmHg 72%
    09:00 +14°C° 0 mm 6 mps 757 mmHg 65%
    10:00 +14°C° 0 mm 7 mps 756 mmHg 64%
    11:00 +14°C° 0 mm 7 mps 756 mmHg 63%
    12:00 +15°C° 0 mm 8 mps 756 mmHg 62%
    13:00 +13°C° 0.2 mm 8 mps 755 mmHg 65%
    14:00 +12°C° 0.2 mm 7 mps 755 mmHg 68%
    15:00 +11°C° 0.2 mm 7 mps 755 mmHg 71%
    16:00 +11°C° 0 mm 7 mps 755 mmHg 68%
    17:00 +11°C° 0 mm 7 mps 755 mmHg 64%
    18:00 +10°C° 0 mm 6 mps 755 mmHg 61%
    19:00 +10°C° 0 mm 6 mps 756 mmHg 63%
    20:00 +9°C° 0 mm 6 mps 756 mmHg 65%
    21:00 +9°C° 0 mm 6 mps 757 mmHg 67%
    22:00 +8°C° 0 mm 6 mps 756 mmHg 71%
    23:00 +8°C° 0 mm 5 mps 756 mmHg 75%

    15 November, Friday

    Time Temperature Precipitation Wind Pressure Humidity
    00:00 +7°C° 0 mm 5 mps 756 mmHg 78%
    01:00 +7°C° 0 mm 4 mps 756 mmHg 79%
    02:00 +7°C° 0 mm 4 mps 756 mmHg 80%
    03:00 +7°C° 0 mm 4 mps 755 mmHg 81%
    04:00 +7°C° 0 mm 4 mps 755 mmHg 81%
    05:00 +6°C° 0 mm 4 mps 755 mmHg 82%
    06:00 +6°C° 0 mm 4 mps 755 mmHg 83%
    07:00 +7°C° 0 mm 4 mps 755 mmHg 76%
    08:00 +8°C° 0 mm 4 mps 755 mmHg 69%
    09:00 +10°C° 0 mm 4 mps 755 mmHg 62%
    10:00 +10°C° 0 mm 5 mps 755 mmHg 56%
    11:00 +12°C° 0 mm 5 mps 755 mmHg 50%
    12:00 +13°C° 0 mm 5 mps 755 mmHg 45%
    13:00 +13°C° 0 mm 6 mps 754 mmHg 43%
    14:00 +13°C° 0 mm 6 mps 754 mmHg 42%
    15:00 +13°C° 0 mm 6 mps 753 mmHg 40%
    16:00 +12°C° 0 mm 5 mps 754 mmHg 42%
    17:00 +10°C° 0 mm 5 mps 754 mmHg 43%
    18:00 +10°C° 0 mm 4 mps 754 mmHg 45%
    19:00 +10°C° 0 mm 4 mps 755 mmHg 46%
    20:00 +8°C° 0 mm 4 mps 755 mmHg 48%
    21:00 +8°C° 0 mm 4 mps 756 mmHg 49%
    22:00 +7°C° 0 mm 4 mps 756 mmHg 51%
    23:00 +7°C° 0 mm 4 mps 756 mmHg 53%

    16 November, Saturday

    Time Temperature Precipitation Wind Pressure Humidity
    00:00 +8°C° 0 mm 3 mps 756 mmHg 55%
    01:00 +7°C° 0 mm 3 mps 756 mmHg 58%
    02:00 +7°C° 0 mm 3 mps 756 mmHg 61%
    03:00 +7°C° 0 mm 3 mps 756 mmHg 64%
    04:00 +7°C° 0 mm 3 mps 756 mmHg 67%
    05:00 +5°C° 0 mm 3 mps 756 mmHg 69%
    06:00 +5°C° 0 mm 3 mps 757 mmHg 72%
    07:00 +7°C° 0 mm 3 mps 757 mmHg 68%
    08:00 +8°C° 0 mm 3 mps 758 mmHg 64%
    09:00 +10°C° 0 mm 3 mps 759 mmHg 61%
    10:00 +11°C° 0 mm 3 mps 759 mmHg 54%
    11:00 +12°C° 0 mm 3 mps 759 mmHg 48%
    12:00 +14°C° 0 mm 3 mps 759 mmHg 41%
    13:00 +14°C° 0 mm 4 mps 759 mmHg 40%
    14:00 +14°C° 0 mm 4 mps 759 mmHg 39%
    15:00 +15°C° 0 mm 5 mps 759 mmHg 38%
    16:00 +13°C° 0 mm 4 mps 759 mmHg 43%
    17:00 +12°C° 0 mm 4 mps 760 mmHg 49%
    18:00 +10°C° 0 mm 4 mps 760 mmHg 54%
    19:00 +10°C° 0 mm 4 mps 760 mmHg 55%
    20:00 +9°C° 0 mm 3 mps 761 mmHg 56%
    21:00 +9°C° 0 mm 3 mps 761 mmHg 57%
    22:00 +9°C° 0 mm 3 mps 761 mmHg 57%
    23:00 +9°C° 0 mm 3 mps 761 mmHg 58%

    17 November, Sunday

    Time Temperature Precipitation Wind Pressure Humidity
    00:00 +9°C° 0 mm 3 mps 761 mmHg 58%
    01:00 +8°C° 0 mm 3 mps 761 mmHg 57%
    02:00 +8°C° 0 mm 3 mps 761 mmHg 56%
    03:00 +8°C° 0 mm 3 mps 761 mmHg 55%
    04:00 +8°C° 0 mm 3 mps 761 mmHg 53%
    05:00 +8°C° 0 mm 3 mps 761 mmHg 52%
    06:00 +8°C° 0 mm 3 mps 761 mmHg 50%
    07:00 +9°C° 0 mm 3 mps 761 mmHg 47%
    08:00 +11°C° 0 mm 3 mps 761 mmHg 45%
    09:00 +12°C° 0 mm 3 mps 761 mmHg 42%
    10:00 +13°C° 0 mm 3 mps 761 mmHg 42%
    11:00 +16°C° 0 mm 3 mps 760 mmHg 43%
    12:00 +17°C° 0 mm 4 mps 760 mmHg 43%
    13:00 +17°C° 0 mm 4 mps 759 mmHg 44%
    14:00 +17°C° 0 mm 4 mps 759 mmHg 46%
    15:00 +17°C° 0 mm 5 mps 758 mmHg 47%
    16:00 +16°C° 0 mm 5 mps 758 mmHg 54%
    17:00 +14°C° 0 mm 4 mps 757 mmHg 61%
    18:00 +13°C° 0 mm 4 mps 757 mmHg 68%
    19:00 +13°C° 0 mm 5 mps 756 mmHg 72%
    20:00 +13°C° 0 mm 5 mps 756 mmHg 76%
    21:00 +13°C° 0 mm 5 mps 756 mmHg 81%
    22:00 +13°C° 0.6 mm 5 mps 755 mmHg 80%
    23:00 +13°C° 0.6 mm 4 mps 755 mmHg 80%
    Show more